Powrót do katalogu

STARLINK-31096

AktywnyŁącznośćVLEO
NORAD 58592·PAYLOAD·🇺🇸 United States

Wystrzelony Dec 19, 2023 z Cape Canaveral Space Force Station

Loading…

Następne Przeloty (najbliższe 24 godziny)

TLE

ŚwieżeSource: CelesTrak SupGP

Epoka: Sep 14, 2026, 21:22 UTC

1 58592C 23200D   26257.89076389  .00071230  00000+0  13338-2 0  2577
2 58592  42.9917 169.3339 0022641 194.4942 143.2254 15.47486361    12

Śledź STARLINK-31096 w czasie rzeczywistym z AllMySat

Download on the App Store